Regional Weather Roundup
Issued by NWS

Home | Current Version | Previous Version | Graphics & Text | Print | Product List | Glossary On
Versions: 1 2 3 4 5 6 7 8 9 10 11 12 13 14 15 16 17 18 19 20 21 22 23 24 25 26 27 28 29 30 31 32 33 34 35 36 37 38 39 40 41 42 43 44 45 46 47 48 49 50
000
ASUS43 KMKX 240200
RWRWI

WISCONSIN REGIONAL WEATHER ROUNDUP
NATIONAL WEATHER SERVICE MILWAUKEE/SULLIVAN WI
900 PM CDT SUN JUL 23 2017

NOTE: "FAIR" INDICATES FEW OR NO CLOUDS BELOW 12,000 FEET WITH NO
SIGNIFICANT WEATHER AND/OR OBSTRUCTIONS TO VISIBILITY.

WIZ001-002-006>008-014>016-023>028-240300-
NORTHWEST WISCONSIN

CITY           SKY/WX    TMP DP  RH WIND       PRES   REMARKS
SUPERIOR ARPT  NOT AVBL
ASHLAND        CLEAR     54  54 100 CALM      30.03R
HAYWARD        CLOUDY    61  55  81 NE9       30.02S
SIREN          CLEAR     64  58  81 CALM      30.01S
CUMBERLAND     CLOUDY    61  55  82 NE8       30.01S
RICE LAKE      CLOUDY    64  55  74 N12       30.02R
CHETEK         CLOUDY    64  58  80 N8        30.00S
LADYSMITH      PTCLDY    62  56  80 N8        30.01R
EAU CLAIRE     NOT AVBL
MENOMONIE      CLOUDY    67  58  73 N9        29.99R
NEW RICHMOND   CLOUDY    66  57  71 NE6       30.00S
OSCEOLA        PTCLDY    66  58  76 NE6       30.02S
$$

WIZ003>005-009-010-017-018-240300-
NORTH CENTRAL WISCONSIN

CITY           SKY/WX    TMP DP  RH WIND       PRES   REMARKS
MANITOWISH WTR CLOUDY    59  59 100 NE7       30.01R
ARBOR VITAE    CLOUDY    62  56  82 NE7       30.01R
WOODRUFF       CLOUDY    62  56  82 NE7       30.01R
RHINELANDER    MOCLDY    60  56  86 N3        30.01R
EAGLE RIVER    MOCLDY    59  55  85 NE7       30.00S
LAND O LAKES   CLOUDY    59  55  84 N5        30.02S
PHILLIPS       CLOUDY    61  59  92 N6        30.00R
TOMAHAWK         N/A     61  53  76 NE3       30.00R
MEDFORD        CLOUDY    64  57  78 NE9       29.97S
MERRILL        NOT AVBL
$$

WIZ029-030-035-036-043>047-240300-
CENTRAL WISCONSIN

CITY           SKY/WX    TMP DP  RH WIND       PRES   REMARKS
WAUSAU         CLOUDY    65  54  67 N7        29.95R
MOSINEE        MOCLDY    66  57  72 NE10G18   29.96R
MARSHFIELD     PTCLDY    65  56  72 N9        29.95R
STEVENS POINT  CLEAR     66  55  69 N9        29.94R
WAUPACA        PTCLDY    71  58  63 N15       29.92R
WAUTOMA        CLOUDY    72  59  63 N14G23    29.91R
WISC RAPIDS    CLEAR     68  59  73 N9G18     29.94R
CAMP DOUGLAS   NOT AVBL
$$

WIZ011>013-019>022-031-037>040-048>050-240300-
NORTHEAST WISCONSIN

CITY           SKY/WX    TMP DP  RH WIND       PRES   REMARKS
ANTIGO         MOCLDY    61  54  77 NE7       29.97R
SHAWANO        MOCLDY    67  56  68 NE14      29.94R
OCONTO         MOCLDY    63  55  76 N9        29.92R
STURGEON BAY     N/A     64  59  83 N18G24    29.93R
GREEN BAY      CLOUDY    65  58  78 N14       29.93R
MANITOWOC      NOT AVBL
APPLETON       PTCLDY    64  54  68 NE14G22   29.90R
CLINTONVILLE   PTCLDY    64  54  68 NE14G20   29.93R
OSHKOSH        CLOUDY    69  59  70 N16G26    29.90R
$$

WIZ032>034-041-042-053>061-240300-
SOUTHWEST WISCONSIN

CITY           SKY/WX    TMP DP  RH WIND       PRES   REMARKS
LA CROSSE      CLEAR     71  60  68 N14       29.93R
SPARTA         PTCLDY    68  60  75 N8        29.93R
VIROQUA        CLEAR     67  62  83 CALM      29.93R
BOSCOBEL       CLEAR     73  60  63 N6        29.91R
PRAIRIE DU CHI CLEAR     73  59  61 N9        29.90R
PLATTEVILLE    CLEAR     70  65  83 N6        29.90R
$$

WIZ056-057-062-063-064-067-068-240300-
SOUTH CENTRAL WISCONSIN

CITY           SKY/WX    TMP DP  RH WIND       PRES   REMARKS
REEDSBURG      CLEAR     70  60  70 NW6       29.89R
BARABOO/DELLS  CLEAR     71  59  66 NW3       29.89R
LONE ROCK      NOT AVBL
MINERAL POINT  CLEAR     70  64  83 NW5       29.90R
MADISON        PTCLDY    72  61  68 NW7       29.87R
MIDDLETON      CLEAR     70  63  79 NW5       29.88R
WATERTOWN      CLEAR     74  65  73 N6        29.85R
MONROE         CLEAR     72  61  68 NW6       29.88R
JANESVILLE     PTCLDY    72  68  88 CALM      29.85R
$$

WIZ051-052-058>065-066-070>072-240300-
SOUTHEAST WISCONSIN

CITY           SKY/WX    TMP DP  RH WIND       PRES   REMARKS
MILWAUKEE      MOCLDY    70  67  90 NE16      29.86R
WAUKESHA       MOCLDY    70  63  78 NE12      29.87R
MILWAUKEE/TIMM CLOUDY    70  63  78 NE13G18   29.87R
RACINE         CLOUDY    72  68  87 NE9       29.87R
KENOSHA        PTCLDY    70  65  84 E6        29.85R
FOND DU LAC    CLOUDY    70  61  73 NE18G25   29.90R
SHEBOYGAN      CLOUDY    67  64  90 NE9       29.89R
WEST BEND      CLOUDY    68  64  88 NE13G18   29.88R
JUNEAU         PTCLDY    70  65  82 N3        29.87R
$$

LSZ147-162-240300-
LAKE SUPERIOR

STATION/POSITION TIME  TEMP    WIND        PRES    WAVE
                       AIR SEA DIR/SP/G            HT/PER
                 (UTC) (F)     (DEG/KT/KT) (MB)    (FT/S)
W MID LAKE BUOY  0050   50 48  300/  6/  8 1016.6R   2/ 4
DEVILS ISLAND    0100   57      20/  4/  4 1017.0R
SAXON HARBOR     0130   60      10/  6/  8 1015.9S
$$

LMZ867-665-643>646-240300-
LAKE MICHIGAN

STATION/POSITION TIME  TEMP    WIND        PRES    WAVE
                       AIR SEA DIR/SP/G            HT/PER
                 (UTC) (F)     (DEG/KT/KT) (MB)    (FT/S)
CHAMBERS ISLAND  0140   65     350/ 17/ 23 1012.2R
S GREEN BAY BUOY 0130   66 72  350/ 19/ 23 1012.7R
N MID LAKE BUOY  2350   63 67   30/ 19/ 23 1011.0    3/ 4
NORTHPORT PIER   0140   64      20/ 14/ 19 1012.9R
KEWAUNEE LAKESHO 0130   65     360/  7/ 12 1011.7R
SHEBOYGAN LAKESH 0100   67      30/ 18/ 20 1010.5R
PORT WASHINGTON  0140   69      30/  9/ 15 1012.2R
ATWATER BUOY     0039   71 70   40/ 14/ 16 1010.4R
MILWAUKEE LAKESH 0130   69      40/ 15/ 16   N/A
S MID LAKE BUOY  0050   72 71   20/ 10/ 12 1009.2R   0
KENOSHA   LAKESH 0100   75      60/  7/  8 1009.5
$$

TC  - TEMPERATURE IN CELSIUS
VSB - VISIBILITY IN STATUTE MILES
WCI - WIND CHILL INDEX
HX  - HEAT INDEX





USA.gov is the U.S. government's official web portal to all federal, state and local government web resources and services.